����������;��������(kVARh)
2018-11-12 00:00;0
2018-11-12 00:15;0
2018-11-12 00:30;0
2018-11-12 00:45;0
2018-11-12 01:00;0
2018-11-12 01:15;0
2018-11-12 01:30;0
2018-11-12 01:45;0
2018-11-12 02:00;0
2018-11-12 02:15;0
2018-11-12 02:30;0
2018-11-12 02:45;0
2018-11-12 03:00;0
2018-11-12 03:15;0,3
2018-11-12 03:30;0,15
2018-11-12 03:45;0,35
2018-11-12 04:00;0,25
2018-11-12 04:15;0
2018-11-12 04:30;0,1
2018-11-12 04:45;0
2018-11-12 05:00;0
2018-11-12 05:15;0,25
2018-11-12 05:30;0
2018-11-12 05:45;0
2018-11-12 06:00;0
2018-11-12 06:15;0
2018-11-12 06:30;0
2018-11-12 06:45;0
2018-11-12 07:00;0,9
2018-11-12 07:15;2,55
2018-11-12 07:30;3,85
2018-11-12 07:45;4,65
2018-11-12 08:00;4,8
2018-11-12 08:15;4,8
2018-11-12 08:30;8,3
2018-11-12 08:45;12,4
2018-11-12 09:00;18,9
2018-11-12 09:15;18,95
2018-11-12 09:30;20,15
2018-11-12 09:45;24,1
2018-11-12 10:00;24,2
2018-11-12 10:15;27,55
2018-11-12 10:30;29,2
2018-11-12 10:45;41,45
2018-11-12 11:00;43,4
2018-11-12 11:15;46,4
2018-11-12 11:30;46,5
2018-11-12 11:45;48,65
2018-11-12 12:00;49,85
2018-11-12 12:15;49
2018-11-12 12:30;50,2
2018-11-12 12:45;49,6
2018-11-12 13:00;49,1
2018-11-12 13:15;48,05
2018-11-12 13:30;47,9
2018-11-12 13:45;46,5
2018-11-12 14:00;47,5
2018-11-12 14:15;48,2
2018-11-12 14:30;48,6
2018-11-12 14:45;48,2
2018-11-12 15:00;45,35
2018-11-12 15:15;41,4
2018-11-12 15:30;40,15
2018-11-12 15:45;39,1
2018-11-12 16:00;37,8
2018-11-12 16:15;36,95
2018-11-12 16:30;34,2
2018-11-12 16:45;30,9
2018-11-12 17:00;29,55
2018-11-12 17:15;27,65
2018-11-12 17:30;23,95
2018-11-12 17:45;25,85
2018-11-12 18:00;23,85
2018-11-12 18:15;21,9
2018-11-12 18:30;19,7
2018-11-12 18:45;21,7
2018-11-12 19:00;20,8
2018-11-12 19:15;22,1
2018-11-12 19:30;21,75
2018-11-12 19:45;24,1
2018-11-12 20:00;25,1
2018-11-12 20:15;23,1
2018-11-12 20:30;22,7
2018-11-12 20:45;21,55
2018-11-12 21:00;19,75
2018-11-12 21:15;18,35
2018-11-12 21:30;20,15
2018-11-12 21:45;14,3
2018-11-12 22:00;17,35
2018-11-12 22:15;16,95
2018-11-12 22:30;16,2
2018-11-12 22:45;5,7
2018-11-12 23:00;3,35
2018-11-12 23:15;0,65
2018-11-12 23:30;0,75
2018-11-12 23:45;1,55
2018-11-13 00:00;0,85
2018-11-13 00:15;3,15
2018-11-13 00:30;3,8
2018-11-13 00:45;4,7
2018-11-13 01:00;4,6
2018-11-13 01:15;3,7
2018-11-13 01:30;2
2018-11-13 01:45;4,4
2018-11-13 02:00;4
2018-11-13 02:15;4,05
2018-11-13 02:30;5,2
2018-11-13 02:45;5,05
2018-11-13 03:00;6,1
2018-11-13 03:15;6,15
2018-11-13 03:30;7,1
2018-11-13 03:45;5,75
2018-11-13 04:00;6,9
2018-11-13 04:15;6
2018-11-13 04:30;7,05
2018-11-13 04:45;6,95
2018-11-13 05:00;7
2018-11-13 05:15;5,45
2018-11-13 05:30;4,5
2018-11-13 05:45;2,45
2018-11-13 06:00;4,35
2018-11-13 06:15;3,3
2018-11-13 06:30;1,8
2018-11-13 06:45;2,05
2018-11-13 07:00;2,85
2018-11-13 07:15;3,5
2018-11-13 07:30;3,05
2018-11-13 07:45;35,75
2018-11-13 08:00;37,9
2018-11-13 08:15;13
2018-11-13 08:30;15,25
2018-11-13 08:45;20,25
2018-11-13 09:00;26,9
2018-11-13 09:15;29,2
2018-11-13 09:30;36,9
2018-11-13 09:45;47,55
2018-11-13 10:00;59,55
2018-11-13 10:15;48,1
2018-11-13 10:30;50,9
2018-11-13 10:45;46
2018-11-13 11:00;36,55
2018-11-13 11:15;40,2
2018-11-13 11:30;44,55
2018-11-13 11:45;45,6
2018-11-13 12:00;44,1
2018-11-13 12:15;38,75
2018-11-13 12:30;42,3
2018-11-13 12:45;43,8
2018-11-13 13:00;45,7
2018-11-13 13:15;55,25
2018-11-13 13:30;50,8
2018-11-13 13:45;48,1
2018-11-13 14:00;37,9
2018-11-13 14:15;39,7
2018-11-13 14:30;45,65
2018-11-13 14:45;57,2
2018-11-13 15:00;47,8
2018-11-13 15:15;37,8
2018-11-13 15:30;36,25
2018-11-13 15:45;29,75
2018-11-13 16:00;30,55
2018-11-13 16:15;34,3
2018-11-13 16:30;30,3
2018-11-13 16:45;32
2018-11-13 17:00;31,45
2018-11-13 17:15;28,1
2018-11-13 17:30;29,45
2018-11-13 17:45;30,5
2018-11-13 18:00;30,75
2018-11-13 18:15;32,2
2018-11-13 18:30;46,75
2018-11-13 18:45;40,7
2018-11-13 19:00;30,35
2018-11-13 19:15;19,05
2018-11-13 19:30;18,35
2018-11-13 19:45;16,4
2018-11-13 20:00;16,1
2018-11-13 20:15;30,65
2018-11-13 20:30;26,8
2018-11-13 20:45;24,85
2018-11-13 21:00;22,95
2018-11-13 21:15;24,5
2018-11-13 21:30;24,35
2018-11-13 21:45;13,9
2018-11-13 22:00;11,45
2018-11-13 22:15;11,55
2018-11-13 22:30;11,4
2018-11-13 22:45;8,6
2018-11-13 23:00;8,95
2018-11-13 23:15;5,25
2018-11-13 23:30;2,7
2018-11-13 23:45;2,8
2018-11-14 00:00;3,4
2018-11-14 00:15;3,35
2018-11-14 00:30;5,65
2018-11-14 00:45;12,2
2018-11-14 01:00;11,5
2018-11-14 01:15;12,3
2018-11-14 01:30;11,6
2018-11-14 01:45;10,35
2018-11-14 02:00;8,85
2018-11-14 02:15;8,6
2018-11-14 02:30;11,15
2018-11-14 02:45;10,45
2018-11-14 03:00;10,5
2018-11-14 03:15;12,05
2018-11-14 03:30;12,7
2018-11-14 03:45;12,05
2018-11-14 04:00;12,45
2018-11-14 04:15;11,05
2018-11-14 04:30;12,75
2018-11-14 04:45;12,9
2018-11-14 05:00;13,2
2018-11-14 05:15;13
2018-11-14 05:30;10,9
2018-11-14 05:45;12,3
2018-11-14 06:00;10,7
2018-11-14 06:15;16,45
2018-11-14 06:30;29,5
2018-11-14 06:45;28,6
2018-11-14 07:00;25,7
2018-11-14 07:15;20,95
2018-11-14 07:30;19,1
2018-11-14 07:45;46,65
2018-11-14 08:00;51,75
2018-11-14 08:15;31,75
2018-11-14 08:30;24
2018-11-14 08:45;48,6
2018-11-14 09:00;37,35
2018-11-14 09:15;43,55
2018-11-14 09:30;37,45
2018-11-14 09:45;51,55
2018-11-14 10:00;44,5
2018-11-14 10:15;53
2018-11-14 10:30;49,7
2018-11-14 10:45;64,95
2018-11-14 11:00;50,85
2018-11-14 11:15;58,6
2018-11-14 11:30;50,25
2018-11-14 11:45;57,8
2018-11-14 12:00;52,2
2018-11-14 12:15;62,25
2018-11-14 12:30;57,75
2018-11-14 12:45;57,05
2018-11-14 13:00;55,1
2018-11-14 13:15;54,2
2018-11-14 13:30;53,85
2018-11-14 13:45;48,85
2018-11-14 14:00;54,5
2018-11-14 14:15;42,25
2018-11-14 14:30;57,95
2018-11-14 14:45;45,65
2018-11-14 15:00;55,15
2018-11-14 15:15;47,7
2018-11-14 15:30;57,65
2018-11-14 15:45;44,8
2018-11-14 16:00;42,4
2018-11-14 16:15;46,25
2018-11-14 16:30;42,6
2018-11-14 16:45;45,05
2018-11-14 17:00;41,1
2018-11-14 17:15;34,85
2018-11-14 17:30;31,75
2018-11-14 17:45;30,4
2018-11-14 18:00;30,9
2018-11-14 18:15;28,15
2018-11-14 18:30;31,85
2018-11-14 18:45;34,35
2018-11-14 19:00;36,4
2018-11-14 19:15;35,65
2018-11-14 19:30;33,3
2018-11-14 19:45;34,55
2018-11-14 20:00;27,6
2018-11-14 20:15;22,8
2018-11-14 20:30;22,7
2018-11-14 20:45;20,9
2018-11-14 21:00;20,75
2018-11-14 21:15;19,35
2018-11-14 21:30;21,1
2018-11-14 21:45;17,3
2018-11-14 22:00;9,3
2018-11-14 22:15;3,4
2018-11-14 22:30;3,35
2018-11-14 22:45;5,5
2018-11-14 23:00;1,2
2018-11-14 23:15;2,15
2018-11-14 23:30;2
2018-11-14 23:45;3,6
2018-11-15 00:00;3,4
2018-11-15 00:15;2,8
2018-11-15 00:30;4,85
2018-11-15 00:45;4,65
2018-11-15 01:00;9,9
2018-11-15 01:15;9,35
2018-11-15 01:30;9,95
2018-11-15 01:45;10,8
2018-11-15 02:00;9,7
2018-11-15 02:15;10,45
2018-11-15 02:30;8,25
2018-11-15 02:45;7,1
2018-11-15 03:00;8,85
2018-11-15 03:15;7,35
2018-11-15 03:30;8,95
2018-11-15 03:45;8,65
2018-11-15 04:00;8,25
2018-11-15 04:15;8,7
2018-11-15 04:30;6,55
2018-11-15 04:45;10
2018-11-15 05:00;9,6
2018-11-15 05:15;10,25
2018-11-15 05:30;8,35
2018-11-15 05:45;13,3
2018-11-15 06:00;12,2
2018-11-15 06:15;9,95
2018-11-15 06:30;11,9
2018-11-15 06:45;31,35
2018-11-15 07:00;37,95
2018-11-15 07:15;34,4
2018-11-15 07:30;33,9
2018-11-15 07:45;60,6
2018-11-15 08:00;55,85
2018-11-15 08:15;27,55
2018-11-15 08:30;30,85
2018-11-15 08:45;28,6
2018-11-15 09:00;38,7
2018-11-15 09:15;31,55
2018-11-15 09:30;40,8
2018-11-15 09:45;33,5
2018-11-15 10:00;40,6
2018-11-15 10:15;35,05
2018-11-15 10:30;46,25
2018-11-15 10:45;39,75
2018-11-15 11:00;47,35
2018-11-15 11:15;40,8
2018-11-15 11:30;47,75
2018-11-15 11:45;47
2018-11-15 12:00;44,5
2018-11-15 12:15;44,15
2018-11-15 12:30;45,4
2018-11-15 12:45;51,05
2018-11-15 13:00;43,1
2018-11-15 13:15;51,3
2018-11-15 13:30;49,05
2018-11-15 13:45;66,05
2018-11-15 14:00;56,85
2018-11-15 14:15;65,45
2018-11-15 14:30;57,55
2018-11-15 14:45;70,5
2018-11-15 15:00;58
2018-11-15 15:15;60,35
2018-11-15 15:30;50,3
2018-11-15 15:45;47,4
2018-11-15 16:00;46,8
2018-11-15 16:15;43,65
2018-11-15 16:30;41,95
2018-11-15 16:45;37,95
2018-11-15 17:00;38,25
2018-11-15 17:15;36,7
2018-11-15 17:30;34,9
2018-11-15 17:45;31,7
2018-11-15 18:00;38,2
2018-11-15 18:15;38,55
2018-11-15 18:30;37,1
2018-11-15 18:45;31,7
2018-11-15 19:00;31,1
2018-11-15 19:15;30,05
2018-11-15 19:30;28,8
2018-11-15 19:45;30
2018-11-15 20:00;29,9
2018-11-15 20:15;21,95
2018-11-15 20:30;16,35
2018-11-15 20:45;16,8
2018-11-15 21:00;16,3
2018-11-15 21:15;15,9
2018-11-15 21:30;14,95
2018-11-15 21:45;12,1
2018-11-15 22:00;11,4
2018-11-15 22:15;9,8
2018-11-15 22:30;8,2
2018-11-15 22:45;8,85
2018-11-15 23:00;11,35
2018-11-15 23:15;5,3
2018-11-15 23:30;4,55
2018-11-15 23:45;6,3
2018-11-16 00:00;2,6
2018-11-16 00:15;1,5
2018-11-16 00:30;2,75
2018-11-16 00:45;3,8
2018-11-16 01:00;3,5
2018-11-16 01:15;3,75
2018-11-16 01:30;6,7
2018-11-16 01:45;13,7
2018-11-16 02:00;16,1
2018-11-16 02:15;15,75
2018-11-16 02:30;17,7
2018-11-16 02:45;15,85
2018-11-16 03:00;14,55
2018-11-16 03:15;13,35
2018-11-16 03:30;14,9
2018-11-16 03:45;31,2
2018-11-16 04:00;33,9
2018-11-16 04:15;30,2
2018-11-16 04:30;24,9
2018-11-16 04:45;21,05
2018-11-16 05:00;20,35
2018-11-16 05:15;18,9
2018-11-16 05:30;18,45
2018-11-16 05:45;17,25
2018-11-16 06:00;17,45
2018-11-16 06:15;14,95
2018-11-16 06:30;16,3
2018-11-16 06:45;14,55
2018-11-16 07:00;13
2018-11-16 07:15;17,25
2018-11-16 07:30;17,7
2018-11-16 07:45;45,95
2018-11-16 08:00;51,75
2018-11-16 08:15;32,55
2018-11-16 08:30;23,95
2018-11-16 08:45;39
2018-11-16 09:00;30
2018-11-16 09:15;42,7
2018-11-16 09:30;34,8
2018-11-16 09:45;46,2
2018-11-16 10:00;46,85
2018-11-16 10:15;48,8
2018-11-16 10:30;47,75
2018-11-16 10:45;49,2
2018-11-16 11:00;61,15
2018-11-16 11:15;51,85
2018-11-16 11:30;62,3
2018-11-16 11:45;56,15
2018-11-16 12:00;67,65
2018-11-16 12:15;54,8
2018-11-16 12:30;58,75
2018-11-16 12:45;51,75
2018-11-16 13:00;60,8
2018-11-16 13:15;55,1
2018-11-16 13:30;64
2018-11-16 13:45;57,4
2018-11-16 14:00;64,4
2018-11-16 14:15;57,15
2018-11-16 14:30;60,55
2018-11-16 14:45;61,5
2018-11-16 15:00;55,3
2018-11-16 15:15;63,7
2018-11-16 15:30;49,4
2018-11-16 15:45;48,45
2018-11-16 16:00;46
2018-11-16 16:15;42,5
2018-11-16 16:30;47,35
2018-11-16 16:45;43,8
2018-11-16 17:00;44,3
2018-11-16 17:15;39,6
2018-11-16 17:30;37,75
2018-11-16 17:45;31,95
2018-11-16 18:00;33,55
2018-11-16 18:15;29,3
2018-11-16 18:30;26,45
2018-11-16 18:45;21,85
2018-11-16 19:00;23,7
2018-11-16 19:15;21,55
2018-11-16 19:30;22,4
2018-11-16 19:45;25,65
2018-11-16 20:00;25,95
2018-11-16 20:15;22,2
2018-11-16 20:30;23,25
2018-11-16 20:45;23,05
2018-11-16 21:00;23
2018-11-16 21:15;23,05
2018-11-16 21:30;20
2018-11-16 21:45;10,75
2018-11-16 22:00;9,3
2018-11-16 22:15;9,3
2018-11-16 22:30;10,2
2018-11-16 22:45;9,1
2018-11-16 23:00;4,4
2018-11-16 23:15;3,4
2018-11-16 23:30;2
2018-11-16 23:45;1,4
2018-11-17 00:00;0,5
2018-11-17 00:15;1,3
2018-11-17 00:30;2,15
2018-11-17 00:45;0,8
2018-11-17 01:00;6,1
2018-11-17 01:15;6,75
2018-11-17 01:30;7,15
2018-11-17 01:45;6,85
2018-11-17 02:00;7,05
2018-11-17 02:15;7,2
2018-11-17 02:30;9,35
2018-11-17 02:45;10,75
2018-11-17 03:00;10,35
2018-11-17 03:15;10,45
2018-11-17 03:30;6,8
2018-11-17 03:45;7,25
2018-11-17 04:00;7,8
2018-11-17 04:15;7,4
2018-11-17 04:30;8,75
2018-11-17 04:45;7,15
2018-11-17 05:00;7,3
2018-11-17 05:15;6,95
2018-11-17 05:30;7,55
2018-11-17 05:45;7,4
2018-11-17 06:00;7,2
2018-11-17 06:15;5,4
2018-11-17 06:30;5,25
2018-11-17 06:45;5,1
2018-11-17 07:00;5,55
2018-11-17 07:15;3,85
2018-11-17 07:30;4,75
2018-11-17 07:45;3,1
2018-11-17 08:00;4,5
2018-11-17 08:15;5,65
2018-11-17 08:30;4,75
2018-11-17 08:45;6,1
2018-11-17 09:00;3,6
2018-11-17 09:15;2,95
2018-11-17 09:30;4,75
2018-11-17 09:45;5,25
2018-11-17 10:00;4,5
2018-11-17 10:15;9,7
2018-11-17 10:30;9,75
2018-11-17 10:45;11,55
2018-11-17 11:00;10,55
2018-11-17 11:15;12,95
2018-11-17 11:30;10,6
2018-11-17 11:45;10,15
2018-11-17 12:00;11,5
2018-11-17 12:15;9,8
2018-11-17 12:30;10,35
2018-11-17 12:45;10,35
2018-11-17 13:00;11,5
2018-11-17 13:15;11,3
2018-11-17 13:30;10,55
2018-11-17 13:45;10,35
2018-11-17 14:00;9,9
2018-11-17 14:15;10,9
2018-11-17 14:30;9,9
2018-11-17 14:45;12,6
2018-11-17 15:00;10,6
2018-11-17 15:15;6,9
2018-11-17 15:30;7,9
2018-11-17 15:45;6,4
2018-11-17 16:00;7,65
2018-11-17 16:15;6,85
2018-11-17 16:30;10,3
2018-11-17 16:45;10,8
2018-11-17 17:00;9,6
2018-11-17 17:15;9,9
2018-11-17 17:30;9,05
2018-11-17 17:45;6,9
2018-11-17 18:00;7,75
2018-11-17 18:15;7,2
2018-11-17 18:30;9
2018-11-17 18:45;8,5
2018-11-17 19:00;5,15
2018-11-17 19:15;6,3
2018-11-17 19:30;9,05
2018-11-17 19:45;9,85
2018-11-17 20:00;10,35
2018-11-17 20:15;6,55
2018-11-17 20:30;6,45
2018-11-17 20:45;6,5
2018-11-17 21:00;4,25
2018-11-17 21:15;3,5
2018-11-17 21:30;4,3
2018-11-17 21:45;4,45
2018-11-17 22:00;4,35
2018-11-17 22:15;5,05
2018-11-17 22:30;5,3
2018-11-17 22:45;5,1
2018-11-17 23:00;2,85
2018-11-17 23:15;2,05
2018-11-17 23:30;1,4
2018-11-17 23:45;1,55
2018-11-18 00:00;1,3
2018-11-18 00:15;1,55
2018-11-18 00:30;2,2
2018-11-18 00:45;5,25
2018-11-18 01:00;3,7
2018-11-18 01:15;3,5
2018-11-18 01:30;4,7
2018-11-18 01:45;2,85
2018-11-18 02:00;1,75
2018-11-18 02:15;2,3
2018-11-18 02:30;4,15
2018-11-18 02:45;3,5
2018-11-18 03:00;3,65
2018-11-18 03:15;4,6
2018-11-18 03:30;5,4
2018-11-18 03:45;6,65
2018-11-18 04:00;6,25
2018-11-18 04:15;5,45
2018-11-18 04:30;5,7
2018-11-18 04:45;7,3
2018-11-18 05:00;6,7
2018-11-18 05:15;5,2
2018-11-18 05:30;5,65
2018-11-18 05:45;4,85
2018-11-18 06:00;6,9
2018-11-18 06:15;8,6
2018-11-18 06:30;9,5
2018-11-18 06:45;8,95
2018-11-18 07:00;13,65
2018-11-18 07:15;17,5
2018-11-18 07:30;15,5
2018-11-18 07:45;17,5
2018-11-18 08:00;17,15
2018-11-18 08:15;17,2
2018-11-18 08:30;12,6
2018-11-18 08:45;10,8
2018-11-18 09:00;10,95
2018-11-18 09:15;11,7
2018-11-18 09:30;13,55
2018-11-18 09:45;11,1
2018-11-18 10:00;10,05
2018-11-18 10:15;9,75
2018-11-18 10:30;9,3
2018-11-18 10:45;14,65
2018-11-18 11:00;13,05
2018-11-18 11:15;13,05
2018-11-18 11:30;12,65
2018-11-18 11:45;12,3
2018-11-18 12:00;12,85
2018-11-18 12:15;13,5
2018-11-18 12:30;14,1
2018-11-18 12:45;13,55
2018-11-18 13:00;13,35
2018-11-18 13:15;12,2
2018-11-18 13:30;7,7
2018-11-18 13:45;5,6
2018-11-18 14:00;5,2
2018-11-18 14:15;6,6
2018-11-18 14:30;11,35
2018-11-18 14:45;12,75
2018-11-18 15:00;14,4
2018-11-18 15:15;15,4
2018-11-18 15:30;15,5
2018-11-18 15:45;15,15
2018-11-18 16:00;14,75
2018-11-18 16:15;13,9
2018-11-18 16:30;11,85
2018-11-18 16:45;10,6
2018-11-18 17:00;8,5
2018-11-18 17:15;6,55
2018-11-18 17:30;3,2
2018-11-18 17:45;3,5
2018-11-18 18:00;1,2
2018-11-18 18:15;1,45
2018-11-18 18:30;2
2018-11-18 18:45;3,45
2018-11-18 19:00;5,15
2018-11-18 19:15;4
2018-11-18 19:30;4,3
2018-11-18 19:45;2,75
2018-11-18 20:00;2,75
2018-11-18 20:15;3,75
2018-11-18 20:30;6,25
2018-11-18 20:45;9,35
2018-11-18 21:00;9,55
2018-11-18 21:15;8,8
2018-11-18 21:30;9,35
2018-11-18 21:45;1,65
2018-11-18 22:00;1,3
2018-11-18 22:15;1,25
2018-11-18 22:30;1,15
2018-11-18 22:45;0,95
2018-11-18 23:00;2,45
2018-11-18 23:15;2
2018-11-18 23:30;1,4
2018-11-18 23:45;0,4

